Sisters Island, British Columbia

4:55 PM PDT on May 27, 2017 (GMT -0700)
Sisters Island

Weather History for CWGT - November, 2012

Change the Weather History Date:

Thursday, November 15, 2012

  Actual Average Record
Temperature  
Mean Temperature 46 °F -  
Max Temperature 48 °F - - ()
Min Temperature 43 °F - - ()
Degree Days  
Heating Degree Days 20    
Moisture  
Dew Point 40 °F    
Average Humidity 85    
Maximum Humidity 93    
Minimum Humidity 71    
Precipitation  
Precipitation 0.00 in - - ()
Sea Level Pressure  
Sea Level Pressure 30.10 in    
Wind  
Wind Speed 3 mph ()    
Max Wind Speed 7 mph    
Max Gust Speed -    
T = Trace of Precipitation, MM = Missing Value Source: Averaged Metar Reports

Daily Weather History Graph

Daily Weather History Graph

Search for Another Location

Airport or City:

Trip Planner

Search our weather history database for the weather conditions in past years. The results will help you decide how hot, cold, wet, or windy it might be!

Date:

Astronomy

Nov. 15, 2012 Rise Set
Actual Time 7:29 AM PST 4:34 PM PST
Civil Twilight 6:54 AM PST 5:09 PM PST
Nautical Twilight 6:15 AM PST 5:48 PM PST
Astronomical Twilight 5:37 AM PST 6:26 PM PST
Moon 9:38 AM PST (11/15) 6:25 PM PST (11/15)
Length of Visible Light 10h 15m
Length of Day
9h 04m
Waxing Crescent, 5% of the Moon is Illuminated
Nov 15
Waxing Crescent
Nov 20
First Quarter
Nov 28
Full
Dec 6
Last Quarter
Dec 13
New

Hourly Weather History & Observations

Time (PST) Temp. Windchill Dew Point Humidity Pressure Visibility Wind Dir Wind Speed Gust Speed Precip Events Conditions
12:00 AM 44.1 °F 42.5 °F 41.2 °F 90% 30.30 in - South 3.5 mph - N/A   Unknown
1:00 AM 44.2 °F 42.7 °F 41.2 °F 89% 30.27 in - ESE 3.5 mph - N/A   Unknown
2:00 AM 43.9 °F 42.3 °F 41.9 °F 93% 30.27 in - ESE 3.5 mph - N/A   Unknown
3:00 AM 43.9 °F 42.3 °F 42.1 °F 93% 30.26 in - SE 3.5 mph - N/A   Unknown
4:00 AM 44 °F - 41 °F 87% 30.24 in - NNE 1.2 mph - -  
4:00 AM 44.1 °F - 41.4 °F 90% 30.24 in - NNE 1.2 mph - N/A   Unknown
5:00 AM 44.2 °F - 40.8 °F 88% 30.22 in - ESE 2.3 mph - N/A   Unknown
6:00 AM 44.1 °F 42.5 °F 41.2 °F 90% 30.19 in - West 3.5 mph - N/A   Unknown
7:00 AM 44.1 °F - 41.0 °F 89% 30.17 in - South 1.2 mph - N/A   Unknown
8:00 AM 44.2 °F - 41.2 °F 89% 30.17 in - NNW 1.2 mph - N/A   Unknown
9:00 AM 44.4 °F - 41.2 °F 88% 30.15 in - South 1.2 mph - N/A   Unknown
10:00 AM 44 °F - 40 °F 82% 30.14 in - South 5.8 mph - -  
10:00 AM 44.1 °F 40.8 °F 40.3 °F 87% 30.14 in - South 5.8 mph - N/A   Unknown
11:00 AM 44.1 °F 40.8 °F 37.4 °F 77% 30.12 in - South 5.8 mph - N/A   Unknown
12:00 PM 45.3 °F 44.0 °F 38.5 °F 77% 30.09 in - WNW 3.5 mph - N/A   Unknown
1:00 PM 48.4 °F - 39.4 °F 71% 30.06 in - Calm Calm - N/A   Unknown
2:00 PM 46.8 °F - 40.3 °F 78% 30.04 in - West 4.6 mph - N/A   Unknown
3:00 PM 45.3 °F 41.6 °F 39.4 °F 80% 30.04 in - NW 6.9 mph - N/A   Unknown
4:00 PM 45 °F - 40 °F 75% 30.01 in - North 5.8 mph - -  
4:00 PM 45.0 °F 41.8 °F 39.7 °F 82% 30.01 in - North 5.8 mph - N/A   Unknown
5:00 PM 45.0 °F 43.5 °F 39.4 °F 81% 29.97 in - NE 3.5 mph - N/A   Unknown
6:00 PM 44.8 °F - 39.4 °F 81% 29.97 in - West 2.3 mph - N/A   Unknown
7:00 PM 44.4 °F - 39.4 °F 82% 29.95 in - Calm Calm - N/A   Unknown
8:00 PM 44.8 °F 41.6 °F 40.1 °F 84% 29.95 in - West 5.8 mph - N/A   Unknown
9:00 PM 44.1 °F - 39.9 °F 85% 29.95 in - WNW 2.3 mph - N/A   Unknown
10:00 PM 44 °F - 41 °F 85% 29.93 in - ESE 3.5 mph - -  
10:00 PM 43.9 °F 42.3 °F 41.0 °F 90% 29.93 in - ESE 3.5 mph - N/A   Unknown
11:00 PM 43.9 °F 40.5 °F 41.4 °F 91% 29.91 in - SE 5.8 mph - N/A   Unknown